Date String (YYYY-MM-DD hh:mm:ss) UTC,Instrument flags,Ambient pressure (hPa),Sample flow (lpm),Bypass flow (lpm),Sample temperature (°C),Ambient temperature (°C),ASC tube jacket temperature (°C),LED temperature (°C),Box temperature (°C),Sample RH (%),Span deviation,Mass concentration (μg/m³),Mass concentration (μg/m³),Mass concentration (μg/m³)
DateTimeUTC,F1_M11,P_M11,Q1_M11,Q2_M11,T1_M11,T2_M11,T3_M11,T4_M11,T5_M11,U1_M11,ZSPAN_M11,X0_M11,X2_M11,X1_M11
2023-02-26 00:00:00,,0822.3,5.00,0.00,23.2,21.7,00.0,31.9,25.0,16.5,0000.0,0011.23,0007.10,0006.51
2023-02-26 00:01:00,,0822.3,5.00,0.00,23.2,21.7,00.0,31.9,25.0,16.3,0000.0,0011.22,0007.09,0006.49
2023-02-26 00:02:00,,0822.3,5.01,0.00,23.2,21.6,00.0,31.9,25.0,16.8,0000.0,0011.20,0007.07,0006.48
2023-02-26 00:03:00,,0822.3,4.99,0.00,23.2,21.6,00.0,31.9,25.0,16.6,0000.0,0011.26,0007.05,0006.47
2023-02-26 00:04:00,,0822.4,5.00,0.00,23.2,21.6,00.0,31.9,25.0,16.4,0000.0,0011.31,0007.05,0006.45
2023-02-26 00:05:00,,0822.4,5.01,0.00,23.2,21.6,00.0,31.9,25.0,16.3,0000.0,0010.97,0007.02,0006.42
2023-02-26 00:06:00,,0822.3,5.01,0.00,23.2,21.6,00.0,31.9,25.0,16.5,0000.0,0010.32,0007.02,0006.41
2023-02-26 00:07:00,,0822.3,4.99,0.00,23.2,21.7,00.0,31.9,25.0,16.7,0000.0,0010.67,0006.98,0006.39
2023-02-26 00:08:00,,0822.4,5.00,0.00,23.2,21.7,00.0,31.9,25.0,16.4,0000.0,0011.22,0006.96,0006.38
2023-02-26 00:09:00,,0822.4,5.00,0.00,23.2,21.7,00.0,31.9,25.0,16.7,0000.0,0011.29,0006.95,0006.36
2023-02-26 00:10:00,,0822.3,5.00,0.00,23.2,21.6,00.0,31.9,25.0,16.8,0000.0,0012.52,0006.95,0006.37
2023-02-26 00:11:00,,0822.4,5.00,0.00,23.2,21.7,00.0,31.9,25.0,16.7,0000.0,0013.19,0006.90,0006.37
2023-02-26 00:12:00,,0822.4,5.02,0.00,23.2,21.7,00.0,31.9,25.1,16.6,0000.0,0013.56,0006.93,0006.37
2023-02-26 00:13:00,,0822.4,5.00,0.00,23.2,21.7,00.0,31.9,25.1,16.4,0000.0,0013.64,0006.94,0006.37
2023-02-26 00:14:00,,0822.4,5.00,0.00,23.2,21.6,00.0,31.9,25.0,16.6,0000.0,0013.89,0006.97,0006.37
2023-02-26 00:15:00,,0822.4,5.01,0.00,23.2,21.6,00.0,31.9,25.0,16.6,0000.0,0014.23,0006.96,0006.37
2023-02-26 00:16:00,,0822.4,5.01,0.00,23.2,21.6,00.0,31.9,25.0,16.6,0000.0,0014.27,0006.97,0006.37
2023-02-26 00:17:00,,0822.4,5.01,0.00,23.2,21.6,00.0,31.9,25.0,16.5,0000.0,0014.41,0007.00,0006.37
2023-02-26 00:18:00,,0822.4,5.01,0.00,23.2,21.6,00.0,31.9,25.0,16.8,0000.0,0014.58,0007.03,0006.38
2023-02-26 00:19:00,,0822.3,5.00,0.00,23.2,21.6,00.0,31.9,25.0,16.9,0000.0,0014.53,0007.02,0006.37
2023-02-26 00:20:00,,0822.4,5.01,0.00,23.2,21.6,00.0,32.0,25.0,16.7,0000.0,0014.51,0007.04,0006.38
2023-02-26 00:21:00,,0822.4,4.98,0.00,23.2,21.6,00.0,32.0,25.0,16.7,0000.0,0013.52,0007.04,0006.37
2023-02-26 00:22:00,,0822.4,5.00,0.00,23.2,21.6,00.0,31.9,25.0,16.9,0000.0,0012.85,0007.01,0006.36
2023-02-26 00:23:00,,0822.4,5.00,0.00,23.2,21.6,00.0,31.9,25.0,16.9,0000.0,0012.46,0006.96,0006.35
2023-02-26 00:24:00,,0822.4,5.01,0.00,23.2,21.6,00.0,31.9,25.0,16.9,0000.0,0012.41,0006.93,0006.35
2023-02-26 00:25:00,,0822.4,5.00,0.00,23.2,21.6,00.0,31.9,25.0,16.8,0000.0,0013.44,0006.93,0006.36
2023-02-26 00:26:00,,0822.4,5.00,0.00,23.2,21.6,00.0,31.9,25.0,16.8,0000.0,0013.17,0006.94,0006.36
2023-02-26 00:27:00,,0822.4,4.99,0.00,23.2,21.6,00.0,31.9,25.0,16.8,0000.0,0013.10,0006.93,0006.36
2023-02-26 00:28:00,,0822.4,5.00,0.00,23.2,21.7,00.0,32.0,25.0,16.7,0000.0,0013.27,0006.88,0006.36
2023-02-26 00:29:00,,0822.4,5.01,0.00,23.2,21.7,00.0,32.0,25.0,16.7,0000.0,0012.63,0006.86,0006.35
2023-02-26 00:30:00,,0822.4,4.99,0.00,23.2,21.7,00.0,32.0,25.0,16.7,0000.0,0012.16,0006.88,0006.36
2023-02-26 00:31:00,,0822.4,5.00,0.00,23.2,21.7,00.0,32.0,25.0,16.7,0000.0,0012.05,0006.89,0006.37
2023-02-26 00:32:00,,0822.4,5.01,0.00,23.2,21.7,00.0,32.0,25.0,16.5,0000.0,0011.75,0006.88,0006.36
2023-02-26 00:33:00,,0822.5,4.98,0.00,23.2,21.7,00.0,32.0,25.0,16.4,0000.0,0011.76,0006.89,0006.34
2023-02-26 00:34:00,,0822.4,5.00,0.00,23.2,21.7,00.0,32.0,25.0,16.5,0000.0,0011.95,0006.87,0006.34
2023-02-26 00:35:00,,0822.4,5.00,0.00,23.2,21.8,00.0,32.0,25.0,16.9,0000.0,0011.94,0006.88,0006.34
2023-02-26 00:36:00,,0822.4,5.00,0.00,23.2,21.8,00.0,32.0,25.1,16.7,0000.0,0010.62,0006.86,0006.32
2023-02-26 00:37:00,,0822.4,4.97,0.00,23.2,21.8,00.0,32.0,25.0,16.6,0000.0,0010.70,0006.82,0006.29
2023-02-26 00:38:00,,0822.4,4.98,0.00,23.2,21.8,00.0,32.0,25.0,16.6,0000.0,0011.14,0006.80,0006.27
2023-02-26 00:39:00,,0822.4,5.00,0.00,23.3,21.8,00.0,32.0,25.1,16.5,0000.0,0010.88,0006.81,0006.25
2023-02-26 00:40:00,,0822.4,5.00,0.00,23.3,21.8,00.0,32.0,25.1,16.2,0000.0,0010.99,0006.81,0006.22
2023-02-26 00:41:00,,0822.5,4.99,0.00,23.3,21.8,00.0,32.0,25.1,16.1,0000.0,0010.97,0006.76,0006.17
2023-02-26 00:42:00,,0822.4,5.01,0.00,23.3,21.7,00.0,32.0,25.0,16.1,0000.0,0010.85,0006.68,0006.09
2023-02-26 00:43:00,,0822.4,5.01,0.00,23.3,21.7,00.0,32.0,25.0,15.7,0000.0,0010.72,0006.61,0006.03
2023-02-26 00:44:00,,0822.4,5.00,0.00,23.2,21.7,00.0,32.0,25.0,15.9,0000.0,0010.70,0006.55,0005.95
2023-02-26 00:45:00,,0822.4,5.00,0.00,23.2,21.6,00.0,32.0,25.0,16.0,0000.0,0010.37,0006.50,0005.89
2023-02-26 00:46:00,,0822.4,5.00,0.00,23.2,21.6,00.0,32.0,25.0,15.9,0000.0,0010.16,0006.42,0005.81
2023-02-26 00:47:00,,0822.4,5.01,0.00,23.2,21.6,00.0,32.0,25.0,15.9,0000.0,0010.03,0006.31,0005.73
2023-02-26 00:48:00,,0822.4,5.00,0.00,23.2,21.6,00.0,32.0,25.0,15.8,0000.0,0009.88,0006.26,0005.66
2023-02-26 00:49:00,,0822.4,4.98,0.00,23.2,21.6,00.0,32.0,25.0,15.8,0000.0,0009.30,0006.19,0005.59
2023-02-26 00:50:00,,0822.4,5.00,0.00,23.2,21.6,00.0,32.0,25.0,15.6,0000.0,0009.17,0006.11,0005.53
2023-02-26 00:51:00,,0822.4,5.00,0.00,23.2,21.6,00.0,32.0,25.0,15.5,0000.0,0009.02,0006.00,0005.44
2023-02-26 00:52:00,,0822.4,5.00,0.00,23.2,21.6,00.0,32.0,24.9,15.6,0000.0,0009.32,0005.97,0005.38
2023-02-26 00:53:00,,0822.4,5.01,0.00,23.2,21.6,00.0,32.0,24.9,15.8,0000.0,0009.21,0005.91,0005.33
2023-02-26 00:54:00,,0822.4,5.01,0.00,23.2,21.6,00.0,32.0,24.9,15.7,0000.0,0009.24,0005.90,0005.30
2023-02-26 00:55:00,,0822.4,4.98,0.00,23.2,21.6,00.0,32.0,25.0,15.7,0000.0,0009.12,0005.87,0005.26
2023-02-26 00:56:00,,0822.5,5.00,0.00,23.2,21.6,00.0,32.0,25.0,15.6,0000.0,0009.05,0005.82,0005.23
2023-02-26 00:57:00,,0822.4,5.00,0.00,23.2,21.6,00.0,32.0,25.0,15.4,0000.0,0009.04,0005.77,0005.18
2023-02-26 00:58:00,,0822.5,4.99,0.00,23.2,21.6,00.0,32.0,24.9,15.1,0000.0,0009.02,0005.72,0005.11
2023-02-26 00:59:00,,0822.4,5.00,0.00,23.2,21.6,00.0,31.9,25.0,14.8,0000.0,0009.36,0005.64,0005.03
